Weather History for Valentine, NE

Change the Weather History Date:

Friday, September 27, 2013

  Actual Average Record
Temperature  
Mean Temperature 52 °F 57 °F  
Max Temperature 59 °F 72 °F 98 °F (1956)
Min Temperature 45 °F 42 °F 24 °F (1928)
Degree Days  
Heating Degree Days 13 9  
Month to date heating degree days 50 131  
Since 1 July heating degree days 53 156  
Cooling Degree Days 0 1  
Month to date cooling degree days 165 79  
Year to date cooling degree days 958 815  
Growing Degree Days 2 (Base 50)    
Moisture  
Dew Point 44 °F    
Average Humidity 79    
Maximum Humidity 100    
Minimum Humidity 57    
Precipitation  
Precipitation 0.88 in 0.05 in 0.88 in (2013)
Month to date precipitation 1.53 1.47  
Year to date precipitation 19.17 17.58  
Snow  
Snow 0.00 in 0.10 in 6.00 in (1945)
Month to date snowfall 0.0 0.6  
Since 1 July snowfall 0.0 0.6  
Since 1 September snowfall 0.0 0.6  
Snow Depth 0.00 in    
Sea Level Pressure  
Sea Level Pressure 29.82 in    
Wind  
Wind Speed 12 mph (NNW)    
Max Wind Speed 22 mph    
Max Gust Speed 30 mph    
Visibility 8 miles    
Events Rain    
T = Trace of Precipitation, MM = Missing Value Source: NWS Daily Summary

Daily Weather History Graph

Daily Weather History Graph

Search for Another Location

Airport:

Trip Planner

Search our weather history database for the weather conditions in past years. The results will help you decide how hot, cold, wet, or windy it might be!

Date:

Astronomy

Sep. 27, 2013 Rise Set
Actual Time 7:35 AM CDT 7:30 PM CDT
Civil Twilight 7:07 AM CDT 7:58 PM CDT
Nautical Twilight 6:34 AM CDT 8:31 PM CDT
Astronomical Twilight 6:00 AM CDT 9:04 PM CDT
Moon 12:24 AM CDT (9/27) 3:17 PM CDT (9/27)
Length of Visible Light 12h 51m
Length of Day
11h 54m
Last Quarter, 45% of the Moon is Illuminated
Sep 27
Last Quarter
Oct 4
New
Oct 11
First Quarter
Oct 18
Full
Oct 26
Last Quarter

Hourly Weather History & Observations

Time (CDT) Temp. Windchill Dew Point Humidity Pressure Visibility Wind Dir Wind Speed Gust Speed Precip Events Conditions
12:52 AM 57.0 °F - 48.0 °F 72% 29.73 in 10.0 mi North 13.8 mph 21.9 mph N/A   Clear
1:52 AM 55.0 °F - 46.0 °F 72% 29.74 in 10.0 mi North 16.1 mph 24.2 mph N/A   Partly Cloudy
2:52 AM 52.0 °F - 44.1 °F 74% 29.72 in 10.0 mi North 17.3 mph 25.3 mph N/A   Partly Cloudy
3:52 AM 51.1 °F - 43.0 °F 74% 29.71 in 10.0 mi NNE 12.7 mph 19.6 mph N/A   Clear
4:21 AM 51.8 °F - 42.8 °F 71% 29.75 in 10.0 mi North 10.4 mph - N/A   Mostly Cloudy
4:52 AM 50.0 °F - 42.1 °F 74% 29.73 in 10.0 mi North 8.1 mph - N/A   Mostly Cloudy
5:52 AM 51.1 °F - 41.0 °F 68% 29.73 in 10.0 mi North 12.7 mph 19.6 mph N/A   Overcast
6:52 AM 51.1 °F - 42.1 °F 71% 29.75 in 10.0 mi North 9.2 mph - N/A   Overcast
7:52 AM 50.0 °F - 41.0 °F 71% 29.77 in 10.0 mi NNW 12.7 mph - N/A   Overcast
8:52 AM 50.0 °F - 41.0 °F 71% 29.78 in 10.0 mi NNW 15.0 mph 21.9 mph N/A   Overcast
9:52 AM 48.9 °F - 42.1 °F 77% 29.78 in 10.0 mi NNW 10.4 mph - N/A   Overcast
10:52 AM 50.0 °F - 42.1 °F 74% 29.81 in 10.0 mi NNW 12.7 mph - N/A   Overcast
11:52 AM 51.1 °F - 42.1 °F 71% 29.82 in 10.0 mi NNW 12.7 mph - N/A   Overcast
12:52 PM 52.0 °F - 42.1 °F 69% 29.84 in 10.0 mi NNW 11.5 mph - N/A   Overcast
1:52 PM 54.0 °F - 43.0 °F 66% 29.83 in 10.0 mi North 11.5 mph - N/A   Overcast
2:52 PM 54.0 °F - 43.0 °F 66% 29.84 in 10.0 mi NNW 6.9 mph - N/A   Overcast
3:25 PM 55.4 °F - 42.8 °F 63% 29.83 in 10.0 mi North 6.9 mph - N/A   Overcast
3:52 PM 57.9 °F - 43.0 °F 58% 29.81 in 10.0 mi North 12.7 mph - N/A   Mostly Cloudy
4:52 PM 57.0 °F - 43.0 °F 59% 29.83 in 10.0 mi NW 8.1 mph - N/A   Partly Cloudy
5:52 PM 57.0 °F - 44.1 °F 62% 29.84 in 10.0 mi NNW 9.2 mph - 0.00 in Rain Light Rain
6:52 PM 54.0 °F - 43.0 °F 66% 29.84 in 10.0 mi NW 9.2 mph - N/A   Overcast
7:40 PM 51.8 °F - 44.6 °F 76% 29.83 in 6.0 mi North 5.8 mph - 0.04 in Rain Light Rain
7:52 PM 51.1 °F - 46.0 °F 83% 29.85 in 10.0 mi NW 10.4 mph - 0.04 in Rain Light Rain
8:17 PM 48.2 °F - 46.4 °F 93% 29.83 in 2.5 mi NW 10.4 mph - 0.06 in Rain Rain
8:21 PM 48.2 °F - 46.4 °F 93% 29.84 in 3.0 mi NW 9.2 mph - 0.07 in Rain Rain
8:52 PM 48.0 °F - 46.0 °F 93% 29.88 in 5.0 mi WNW 12.7 mph 23.0 mph 0.11 in Rain Rain
9:03 PM 48.2 °F - 46.4 °F 93% 29.85 in 2.5 mi NW 13.8 mph 21.9 mph 0.06 in Rain Rain
9:20 PM 48.2 °F - 46.4 °F 93% 29.87 in 1.5 mi NW 11.5 mph 23.0 mph 0.21 in Rain Heavy Rain
9:33 PM 46.4 °F 40.7 °F 46.4 °F 100% 29.89 in 3.0 mi NW 12.7 mph 19.6 mph 0.29 in Rain Rain
9:41 PM 46.4 °F 41.5 °F 46.4 °F 100% 29.90 in 2.5 mi NW 10.4 mph - 0.32 in Rain Heavy Rain
9:52 PM 46.9 °F - 46.0 °F 97% 29.92 in 2.0 mi NW 10.4 mph - 0.37 in Rain Heavy Rain
10:05 PM 46.4 °F 41.5 °F 46.4 °F 100% 29.89 in 1.8 mi NNW 10.4 mph - 0.09 in Rain Heavy Rain
10:15 PM 46.4 °F 41.1 °F 44.6 °F 93% 29.88 in 2.5 mi NW 11.5 mph 18.4 mph 0.16 in Rain Heavy Rain
10:22 PM 46.4 °F 41.1 °F 44.6 °F 93% 29.88 in 3.0 mi NW 11.5 mph - 0.18 in Rain Rain
10:36 PM 46.4 °F 40.1 °F 44.6 °F 93% 29.88 in 3.0 mi NW 15.0 mph 21.9 mph 0.24 in Rain Heavy Rain
10:52 PM 46.0 °F 38.3 °F 44.1 °F 93% 29.89 in 4.0 mi NW 20.7 mph 28.8 mph 0.30 in Rain Rain
11:52 PM 45.0 °F 37.9 °F 43.0 °F 93% 29.90 in 9.0 mi NNW 16.1 mph - 0.04 in Rain Light Rain